Location: Spring Creek
(38.2870°N, 100.2160°W)
Time: 09:21:31
(UTC+00:00)

Ariane Rocket - Pass Details

Date: 08 May 2021
Orbit: 761 x 769 km, 98.7° (Epoch: 21 June)

Event Time Altitude Azimuth Distance (km) Brightness Sun altitude
Exits shadow 02:40:23 11° 155° (SSE) 2,244 4.9 -11.6°
Maximum altitude 02:45:16 67° 74° (ENE) 827 3.0 -12.4°
Drops below altitude 10° 02:50:17 10° 353° (N) 2,303 6.1 -13.2°
Sets 02:52:37 0° 350° (N) 3,234 7.0 -13.6°
